When you browse on this site, cookies collect data to enhance your experience and personalize the content and advertising you see.
Visit our Privacy Policy to learn more. By continuing to use the site, you agree to this use of cookies and data.
  • In Deutschland
  • Länderverzeichnis
  • Für 7 Tage
  • Wassertemperatur
  • Wetterkarte
  • Widgets
  • user-avatar
    Anmelden

    Stündliche Wetter Trowbridge

    Heute, 15 September, Sonntag

    Zeit Temperatur Niederschläge Wind Luftdruck Luftfeuchtigkeit
    00:00 +13°C° 0 mm 2 m/S 767 mmHg 78%
    01:00 +12°C° 0 mm 2 m/S 766 mmHg 82%
    02:00 +12°C° 0 mm 2 m/S 766 mmHg 87%
    03:00 +12°C° 0 mm 2 m/S 765 mmHg 91%
    04:00 +12°C° 0 mm 2 m/S 765 mmHg 92%
    05:00 +12°C° 0 mm 2 m/S 765 mmHg 93%
    06:00 +12°C° 0 mm 2 m/S 765 mmHg 94%
    07:00 +14°C° 0 mm 2 m/S 765 mmHg 88%
    08:00 +16°C° 0 mm 2 m/S 765 mmHg 82%
    09:00 +18°C° 0 mm 3 m/S 765 mmHg 75%
    10:00 +19°C° 0 mm 3 m/S 765 mmHg 72%
    11:00 +21°C° 0 mm 3 m/S 765 mmHg 69%
    12:00 +22°C° 0 mm 3 m/S 764 mmHg 66%
    13:00 +22°C° 0 mm 3 m/S 764 mmHg 67%
    14:00 +22°C° 0 mm 4 m/S 764 mmHg 69%
    15:00 +22°C° 0 mm 4 m/S 764 mmHg 71%
    16:00 +21°C° 0 mm 4 m/S 763 mmHg 77%
    17:00 +19°C° 0 mm 3 m/S 763 mmHg 83%
    18:00 +18°C° 0 mm 3 m/S 763 mmHg 89%
    19:00 +17°C° 0 mm 3 m/S 763 mmHg 91%
    20:00 +16°C° 0 mm 3 m/S 763 mmHg 94%
    21:00 +14°C° 0 mm 3 m/S 763 mmHg 97%
    22:00 +16°C° 0 mm 3 m/S 763 mmHg 97%
    23:00 +16°C° 0 mm 3 m/S 763 mmHg 97%

    Morgen, 16 September, Montag

    Zeit Temperatur Niederschläge Wind Luftdruck Luftfeuchtigkeit
    00:00 +16°C° 0 mm 3 m/S 763 mmHg 96%
    01:00 +16°C° 0 mm 3 m/S 762 mmHg 96%
    02:00 +16°C° 0 mm 3 m/S 762 mmHg 95%
    03:00 +16°C° 0 mm 3 m/S 762 mmHg 95%
    04:00 +16°C° 0 mm 3 m/S 762 mmHg 95%
    05:00 +16°C° 0 mm 3 m/S 761 mmHg 95%
    06:00 +16°C° 0 mm 3 m/S 761 mmHg 95%
    07:00 +16°C° 0 mm 3 m/S 762 mmHg 93%
    08:00 +17°C° 0 mm 3 m/S 762 mmHg 91%
    09:00 +18°C° 0 mm 3 m/S 762 mmHg 89%
    10:00 +18°C° 0 mm 3 m/S 762 mmHg 86%
    11:00 +19°C° 0 mm 3 m/S 762 mmHg 83%
    12:00 +20°C° 0 mm 3 m/S 763 mmHg 79%
    13:00 +20°C° 0 mm 3 m/S 763 mmHg 80%
    14:00 +19°C° 0 mm 3 m/S 763 mmHg 80%
    15:00 +19°C° 0 mm 4 m/S 763 mmHg 81%
    16:00 +18°C° 0 mm 3 m/S 763 mmHg 82%
    17:00 +18°C° 0 mm 3 m/S 763 mmHg 83%
    18:00 +17°C° 0 mm 3 m/S 763 mmHg 84%
    19:00 +16°C° 0 mm 3 m/S 763 mmHg 84%
    20:00 +13°C° 0 mm 3 m/S 764 mmHg 83%
    21:00 +12°C° 0 mm 4 m/S 764 mmHg 83%
    22:00 +11°C° 0 mm 3 m/S 764 mmHg 85%
    23:00 +10°C° 0 mm 3 m/S 764 mmHg 86%

    übermorgen, 17 September, Dienstag

    Zeit Temperatur Niederschläge Wind Luftdruck Luftfeuchtigkeit
    00:00 +9°C° 0 mm 3 m/S 764 mmHg 87%
    01:00 +9°C° 0 mm 3 m/S 764 mmHg 89%
    02:00 +8°C° 0 mm 3 m/S 765 mmHg 91%
    03:00 +8°C° 0 mm 3 m/S 765 mmHg 92%
    04:00 +8°C° 0 mm 3 m/S 765 mmHg 93%
    05:00 +8°C° 0 mm 3 m/S 765 mmHg 93%
    06:00 +7°C° 0 mm 2 m/S 765 mmHg 93%
    07:00 +9°C° 0 mm 3 m/S 765 mmHg 86%
    08:00 +11°C° 0 mm 3 m/S 766 mmHg 79%
    09:00 +13°C° 0 mm 4 m/S 766 mmHg 72%
    10:00 +14°C° 0 mm 4 m/S 766 mmHg 67%
    11:00 +15°C° 0 mm 4 m/S 766 mmHg 62%
    12:00 +17°C° 0 mm 3 m/S 766 mmHg 57%
    13:00 +18°C° 0 mm 3 m/S 766 mmHg 56%
    14:00 +18°C° 0 mm 3 m/S 765 mmHg 55%
    15:00 +18°C° 0 mm 3 m/S 765 mmHg 54%
    16:00 +17°C° 0 mm 3 m/S 765 mmHg 60%
    17:00 +16°C° 0 mm 3 m/S 765 mmHg 66%
    18:00 +15°C° 0 mm 2 m/S 765 mmHg 72%
    19:00 +14°C° 0 mm 2 m/S 765 mmHg 74%
    20:00 +13°C° 0 mm 2 m/S 766 mmHg 76%
    21:00 +12°C° 0 mm 2 m/S 766 mmHg 79%
    22:00 +10°C° 0 mm 2 m/S 766 mmHg 81%
    23:00 +10°C° 0 mm 2 m/S 766 mmHg 83%

    18 September, Mittwoch

    Zeit Temperatur Niederschläge Wind Luftdruck Luftfeuchtigkeit
    00:00 +9°C° 0 mm 2 m/S 766 mmHg 84%
    01:00 +9°C° 0 mm 2 m/S 766 mmHg 86%
    02:00 +10°C° 0 mm 1 m/S 766 mmHg 87%
    03:00 +9°C° 0 mm 1 m/S 766 mmHg 88%
    04:00 +9°C° 0 mm 1 m/S 766 mmHg 88%
    05:00 +9°C° 0 mm 1 m/S 766 mmHg 88%
    06:00 +8°C° 0 mm 0 m/S 766 mmHg 89%
    07:00 +10°C° 0 mm 0 m/S 767 mmHg 82%
    08:00 +13°C° 0 mm 1 m/S 767 mmHg 75%
    09:00 +15°C° 0 mm 1 m/S 767 mmHg 68%
    10:00 +16°C° 0 mm 1 m/S 767 mmHg 64%
    11:00 +18°C° 0 mm 1 m/S 767 mmHg 61%
    12:00 +18°C° 0 mm 2 m/S 767 mmHg 57%
    13:00 +19°C° 0 mm 2 m/S 767 mmHg 58%
    14:00 +19°C° 0 mm 2 m/S 767 mmHg 59%
    15:00 +20°C° 0 mm 3 m/S 767 mmHg 60%
    16:00 +19°C° 0 mm 2 m/S 767 mmHg 66%
    17:00 +17°C° 0 mm 2 m/S 767 mmHg 72%
    18:00 +16°C° 0 mm 2 m/S 767 mmHg 78%
    19:00 +16°C° 0 mm 2 m/S 767 mmHg 80%
    20:00 +15°C° 0 mm 2 m/S 767 mmHg 83%
    21:00 +14°C° 0 mm 2 m/S 768 mmHg 86%
    22:00 +14°C° 0 mm 2 m/S 768 mmHg 87%
    23:00 +14°C° 0 mm 2 m/S 768 mmHg 88%

    19 September, Donnerstag

    Zeit Temperatur Niederschläge Wind Luftdruck Luftfeuchtigkeit
    00:00 +14°C° 0 mm 2 m/S 768 mmHg 89%
    01:00 +14°C° 0 mm 2 m/S 768 mmHg 89%
    02:00 +14°C° 0 mm 2 m/S 768 mmHg 89%
    03:00 +12°C° 0 mm 3 m/S 768 mmHg 90%
    04:00 +12°C° 0 mm 3 m/S 769 mmHg 89%
    05:00 +12°C° 0 mm 3 m/S 769 mmHg 89%
    06:00 +11°C° 0 mm 3 m/S 769 mmHg 89%
    07:00 +12°C° 0 mm 3 m/S 770 mmHg 84%
    08:00 +13°C° 0 mm 3 m/S 770 mmHg 79%
    09:00 +14°C° 0 mm 4 m/S 770 mmHg 74%
    10:00 +15°C° 0 mm 4 m/S 771 mmHg 68%
    11:00 +17°C° 0 mm 4 m/S 771 mmHg 62%
    12:00 +17°C° 0 mm 4 m/S 771 mmHg 56%
    13:00 +18°C° 0 mm 4 m/S 771 mmHg 54%
    14:00 +18°C° 0 mm 4 m/S 770 mmHg 52%
    15:00 +18°C° 0 mm 3 m/S 770 mmHg 50%
    16:00 +17°C° 0 mm 3 m/S 770 mmHg 54%
    17:00 +14°C° 0 mm 3 m/S 770 mmHg 59%
    18:00 +14°C° 0 mm 2 m/S 770 mmHg 63%
    19:00 +13°C° 0 mm 2 m/S 771 mmHg 65%
    20:00 +12°C° 0 mm 2 m/S 771 mmHg 66%
    21:00 +10°C° 0 mm 2 m/S 771 mmHg 67%
    22:00 +10°C° 0 mm 2 m/S 771 mmHg 72%
    23:00 +9°C° 0 mm 2 m/S 771 mmHg 76%

    20 September, Freitag

    Zeit Temperatur Niederschläge Wind Luftdruck Luftfeuchtigkeit
    00:00 +9°C° 0 mm 2 m/S 771 mmHg 80%
    01:00 +8°C° 0 mm 2 m/S 771 mmHg 82%
    02:00 +8°C° 0 mm 2 m/S 771 mmHg 83%
    03:00 +8°C° 0 mm 2 m/S 771 mmHg 84%
    04:00 +8°C° 0 mm 2 m/S 770 mmHg 86%
    05:00 +7°C° 0 mm 2 m/S 770 mmHg 88%
    06:00 +7°C° 0 mm 2 m/S 770 mmHg 89%
    07:00 +9°C° 0 mm 2 m/S 770 mmHg 83%
    08:00 +12°C° 0 mm 2 m/S 770 mmHg 76%
    09:00 +13°C° 0 mm 3 m/S 769 mmHg 69%
    10:00 +14°C° 0 mm 3 m/S 769 mmHg 65%
    11:00 +17°C° 0 mm 3 m/S 769 mmHg 61%
    12:00 +18°C° 0 mm 4 m/S 768 mmHg 57%
    13:00 +18°C° 0 mm 4 m/S 767 mmHg 58%
    14:00 +18°C° 0 mm 4 m/S 767 mmHg 59%
    15:00 +18°C° 0 mm 4 m/S 766 mmHg 59%
    16:00 +17°C° 0 mm 4 m/S 765 mmHg 64%
    17:00 +14°C° 0 mm 3 m/S 765 mmHg 68%
    18:00 +12°C° 0 mm 3 m/S 764 mmHg 72%
    19:00 +11°C° 0 mm 3 m/S 764 mmHg 74%
    20:00 +10°C° 0 mm 3 m/S 764 mmHg 77%
    21:00 +9°C° 0 mm 3 m/S 763 mmHg 79%
    22:00 +10°C° 0 mm 3 m/S 762 mmHg 80%
    23:00 +10°C° 0 mm 3 m/S 762 mmHg 81%
    Mehr zeigen